This demonstration page uses our WeatherBlox Daily Observations layout. Learn more.

Left ArrowRight Arrow

39.29038, -76.61219

Hourly Observations for May 22, 2021

Temp ( °F °C ) Dew Point ( °F °C ) Humidity (%) Winds ( mph kmh ) Pressure ( in mb ) Visibility ( mi km ) Precip ( " mm )
12:54 am 00:54 Partly Cloudy 67 19.4 51 10.6 57 57 W 3 6 30.37 1029 10 16 N/A
1:54 am 01:54 Partly Cloudy 66 18.9 50 10 56 56 W 3 6 30.35 1028 10 16 N/A
2:54 am 02:54 Partly Cloudy 63 17.2 50 10 63 63 W 7 11 30.33 1027 10 16 N/A
3:54 am 03:54 Mostly Clear 64 17.8 49 9.4 58 58 W 5 7 30.32 1027 10 16 N/A
4:54 am 04:54 Partly Cloudy 61 16.1 50 10 67 67 WSW 5 7 30.31 1026 10 16 N/A
5:54 am 05:54 Mostly Cloudy 59 15 50 10 72 72 SW 5 7 30.31 1026 10 16 N/A
6:54 am 06:54 Mostly Cloudy 65 18.3 53 11.7 66 66 WSW 3 6 30.31 1026 10 16 N/A
7:54 am 07:54 Mostly Cloudy 71 21.7 54 12.2 55 55 WSW 8 13 30.31 1026 10 16 N/A
8:54 am 08:54 Mostly Cloudy 79 26.1 55 12.8 44 44 W 8 13 30.30 1026 10 16 N/A
9:54 am 09:54 Mostly Cloudy 80 26.7 54 12.2 41 41 W 8 13 30.29 1026 10 16 N/A
10:54 am 10:54 Mostly Cloudy 85 29.4 57 13.9 39 39 WNW 12 19 30.28 1025 10 16 N/A
11:54 am 11:54 Mostly Cloudy 88 31.1 57 13.9 35 35 NW 7 11 30.26 1025 10 16 N/A
12:54 pm 12:54 Mostly Cloudy 91 32.8 55 12.8 30 30 NW 9 15 30.24 1024 10 16 N/A
1:54 pm 13:54 Mostly Cloudy 91 32.8 54 12.2 28 28 NW 12 19 30.21 1023 10 16 N/A
2:54 pm 14:54 Cloudy 91 32.8 56 13.3 31 31 NW 10 17 30.19 1022 10 16 N/A
3:54 pm 15:54 Cloudy 89 31.7 56 13.3 33 33 WNW 14 22 30.16 1021 10 16 N/A
4:54 pm 16:54 Cloudy 89 31.7 55 12.8 31 31 WNW 9 15 30.15 1021 10 16 N/A
5:54 pm 17:54 Cloudy 87 30.6 59 15 39 39 WNW 12 19 30.13 1020 10 16 N/A
6:54 pm 18:54 Cloudy 86 30 60 15.6 42 42 W 8 13 30.12 1020 10 16 N/A
7:54 pm 19:54 Cloudy 84 28.9 57 13.9 40 40 WNW 10 17 30.12 1020 10 16 N/A
8:54 pm 20:54 Cloudy 82 27.8 56 13.3 41 41 WNW 10 17 30.11 1020 10 16 N/A
9:54 pm 21:54 Cloudy 80 26.7 55 12.8 42 42 W 8 13 30.12 1020 10 16 N/A
10:54 pm 22:54 Mostly Cloudy 79 26.1 55 12.8 44 44 WNW 8 13 30.11 1020 10 16 N/A
11:54 pm 23:54 Mostly Cloudy 78 25.6 55 12.8 45 45 W 8 13 30.10 1019 10 16 N/A

Powered by AerisWeather